TimePST,TemperatureF,Dew PointF,Humidity,Sea Level PressureIn,VisibilityMPH,Wind Direction,Wind SpeedMPH,Gust SpeedMPH,PrecipitationIn,Events,Conditions,WindDirDegrees,DateUTC
12:53 AM,64.0,34.0,33,29.97,10.0,NE,4.6,-,N/A,,Partly Cloudy,50,2014-02-21 08:53:00
1:53 AM,62.1,32.0,32,29.96,10.0,ENE,4.6,-,N/A,,Partly Cloudy,70,2014-02-21 09:53:00
2:53 AM,57.9,34.0,41,29.96,10.0,East,5.8,-,N/A,,Partly Cloudy,80,2014-02-21 10:53:00
3:53 AM,57.0,39.0,51,29.96,10.0,East,5.8,-,N/A,,Scattered Clouds,80,2014-02-21 11:53:00
4:53 AM,57.9,45.0,62,29.96,10.0,ENE,4.6,-,N/A,,Scattered Clouds,70,2014-02-21 12:53:00
5:53 AM,57.9,46.9,67,29.96,10.0,Calm,Calm,-,N/A,,Mostly Cloudy,0,2014-02-21 13:53:00
6:53 AM,57.0,48.0,72,29.97,10.0,Variable,5.8,-,N/A,,Scattered Clouds,0,2014-02-21 14:53:00
7:53 AM,62.1,51.1,67,29.98,8.0,ENE,4.6,-,N/A,,Scattered Clouds,70,2014-02-21 15:53:00
8:53 AM,66.0,48.9,54,29.99,8.0,ESE,4.6,-,N/A,,Scattered Clouds,110,2014-02-21 16:53:00
9:53 AM,70.0,37.9,31,30.00,10.0,East,3.5,-,N/A,,Partly Cloudy,100,2014-02-21 17:53:00
10:53 AM,73.0,33.1,23,29.98,10.0,Calm,Calm,-,N/A,,Partly Cloudy,0,2014-02-21 18:53:00
11:53 AM,71.1,48.9,45,29.96,10.0,West,9.2,-,N/A,,Clear,280,2014-02-21 19:53:00
12:53 PM,71.1,50.0,47,29.93,10.0,West,10.4,-,N/A,,Clear,280,2014-02-21 20:53:00
1:53 PM,70.0,53.1,55,29.91,10.0,West,8.1,-,N/A,,Partly Cloudy,270,2014-02-21 21:53:00
2:53 PM,66.0,53.1,63,29.90,9.0,West,11.5,-,N/A,Fog,Patches of Fog,280,2014-02-21 22:53:00
3:53 PM,63.0,54.0,72,29.89,8.0,West,11.5,-,N/A,Fog,Patches of Fog,270,2014-02-21 23:53:00
4:53 PM,60.1,53.1,78,29.88,8.0,West,6.9,-,N/A,Fog,Patches of Fog,260,2014-02-22 00:53:00
5:53 PM,59.0,52.0,78,29.89,10.0,West,4.6,-,N/A,Fog,Patches of Fog,260,2014-02-22 01:53:00
6:53 PM,59.0,52.0,78,29.90,10.0,West,5.8,-,N/A,Fog,Patches of Fog,260,2014-02-22 02:53:00
7:53 PM,59.0,52.0,78,29.91,10.0,WSW,3.5,-,N/A,,Scattered Clouds,250,2014-02-22 03:53:00
8:53 PM,60.1,52.0,75,29.91,10.0,SW,3.5,-,N/A,,Partly Cloudy,220,2014-02-22 04:53:00
9:53 PM,61.0,52.0,72,29.92,10.0,SE,3.5,-,N/A,,Partly Cloudy,140,2014-02-22 05:53:00
10:53 PM,59.0,51.1,75,29.92,9.0,NE,4.6,-,N/A,,Partly Cloudy,50,2014-02-22 06:53:00
11:53 PM,57.0,50.0,77,29.92,9.0,East,6.9,-,N/A,,Partly Cloudy,100,2014-02-22 07:53:00